User: anonymous   Login
Location: Unspecified
(0.0000°N, 0.0000°E)
Time: 18:09:49
(UTC+00:00)
Language:

STARLINK-1502 - Orbit

View from above orbital plane
View from above orbital plane
View from above satellite
View from above satellite

Ground track
Ground track

The orbit is defined by the following mean orbital elements,

1 45764U          26145.58335647 +.00000000 +00000-0 +14260-2 0 00003
2 45764  53.0454 195.2432 0007141 325.0931  71.5807 15.59236395    07
Epoch (UTC): 25 May 2026 14:00:01
Eccentricity: 0.0007141
inclination: 53.0454°
perigee height: 385 km
apogee height: 395 km
right ascension of ascending node: 195.2432°
argument of perigee: 325.0931°
revolutions per day: 15.59236395
mean anomaly at epoch: 71.5807°

The dashed part of the orbit path shows where the satellite is in the earth's shadow,  

DLR